Miscellaneous Local Product
Issued by NWS Hastings, NE

Home | Current Version | Previous Version | Graphics & Text | Print | Product List | Glossary On
Versions: 1 2 3 4 5 6 7 8 9 10 11 12 13 14 15 16 17 18 19 20 21 22 23 24 25 26 27 28 29 30 31 32 33 34 35 36 37 38 39 40 41 42 43 44 45 46 47 48 49 50
000
AXUS43 KGID 291702
MISGRI

GID CWA HOURLY WEATHER ROUNDUP
NATIONAL WEATHER SERVICE HASTINGS NE
1200 PM CDT TUE JUL 29 2014

NOTE: "FAIR" INDICATES FEW OR NO CLOUDS BELOW 12,000 FEET WITH NO
SIGNIFICANT WEATHER AND/OR OBSTRUCTIONS TO VISIBILITY.

...SOUTH CENTRAL NEBRASKA...

CITY           SKY/WX    TMP DP  RH WIND       PRES   REMARKS
GRAND ISLAND   PTSUNNY   73  53  49 SE5       30.25S
HASTINGS       PTSUNNY   71  54  54 S5        30.24F
KEARNEY        PTSUNNY   72  55  56 E7        30.25S
ORD            MOSUNNY   72  57  59 CALM      30.23F
YORK           SUNNY     73  54  49 SW3       30.24S
AURORA         SUNNY     74  55  52 CALM      30.24F
LEXINGTON      PTSUNNY   73  57  57 SE9       30.24S
HOLDREGE       PTSUNNY   72  55  55 SE8       30.23F
HEBRON         CLOUDY    71  55  56 CALM      30.24S

...NEBRASKA PANHANDLE...

CITY           SKY/WX    TMP DP  RH WIND       PRES   REMARKS
CHADRON        PTSUNNY   73  58  59 E12       30.23S
ALLIANCE       MOSUNNY   76  56  49 E13       30.25F
SCOTTSBLUFF    CLOUDY    67  58  72 VRB6      30.27F
SIDNEY         MOSUNNY   76  57  51 E8        30.27S

...WESTERN AND NORTH CENTRAL NEBRASKA...

CITY           SKY/WX    TMP DP  RH WIND       PRES   REMARKS
VALENTINE      PTSUNNY   75  51  43 CALM      30.24F
AINSWORTH      PTSUNNY   74  54  50 SE3       30.25F
ONEILL         MOSUNNY   75  49  40 NW6       30.24F
BROKEN BOW     PTSUNNY   72  58  61 SE6       30.25S
IMPERIAL       CLOUDY    73  58  59 SE12      30.23F
NORTH PLATTE   PTSUNNY   71  57  61 SE8       30.24S
MCCOOK         SUNNY     78  58  49 E9        30.21F

...EASTERN NEBRASKA...

CITY           SKY/WX    TMP DP  RH WIND       PRES   REMARKS
NORFOLK        MOSUNNY   76  51  41 NW7       30.24S
SO SIOUX CITY  PTSUNNY   75  56  51 N7        30.22S
TEKAMAH        PTSUNNY   75  57  53 VRB5      30.22S
ALBION         MOSUNNY   73  51  47 W3        30.24F
OMAHA EPPLEY   PTSUNNY   76  56  49 N8        30.21S
OFFUTT AFB     MOSUNNY   75  60  58 N5        30.20F
MILLARD        PTSUNNY   74  56  53 NW7       30.21S
LINCOLN        PTSUNNY   80  53  39 MISG      30.22F
NEBRASKA CITY  PTSUNNY   74  55  50 CALM      30.21S
BEATRICE       MOSUNNY   74  58  56 W7        30.22S
FALLS CITY     MOSUNNY   78  59  51 NW8       30.20S

...NORTHERN KANSAS...

CITY           SKY/WX    TMP DP  RH WIND       PRES   REMARKS
GOODLAND       PTSUNNY   79  63  57 S14G21    30.21F
HILL CITY      SUNNY     82  58  43 S10G20    30.20
NORTON         SUNNY     81  52  36 NE5       30.21S
PHILLIPSBURG   SUNNY     79  54  41 E9G17     30.22F
SMITH CENTER   PTSUNNY   79  52  38 E12       30.22F
HAYS           SUNNY     81  59  47 SE9       30.20F
RUSSELL        SUNNY     80  57  45 S6        30.19S
CONCORDIA      PTSUNNY   68  61  78 SE5       30.23F
SALINA         MOSUNNY   82  54  37 VRB6      30.21S
TOPEKA         CLOUDY    80  57  45 NW3       30.20S



USA.gov is the U.S. government's official web portal to all federal, state and local government web resources and services.